Regional Weather Roundup
Issued by NWS Sioux Falls, SD

Home | Current Version | Previous Version | Text Only | Print | Product List | Glossary On
Versions: 1 2 3 4 5 6 7 8 9 10 11 12 13 14 15 16 17 18 19 20 21 22 23 24 25 26 27 28 29 30 31 32 33 34 35 36 37 38 39 40 41 42 43 44 45 46 47 48 49 50
853
ASUS43 KFSD 140010
RWRFSD

WEATHER ROUNDUP FOR SE SOUTH DAKOTA/SW MINNESOTA/NW IOWA
NATIONAL WEATHER SERVICE SIOUX FALLS SD
600 PM CST SAT FEB 13 2016

NOTE: "FAIR" INDICATES FEW OR NO CLOUDS BELOW 12,000 FEET WITH NO
SIGNIFICANT WEATHER AND OR OBSTRUCTIONS TO VISIBILITY.


SDZ038>040-050-052>070-140100-
SOUTHEAST SOUTH DAKOTA

CITY           SKY/WX    TMP DP  RH WIND       PRES   REMARKS
BROOKINGS      CLOUDY     9   0  67 SE24G32   30.15F WCI -12
CHAMBERLAIN    CLOUDY    25  18  76 S21       29.99F WCI  10
6HR MIN TEMP:  21; 6HR MAX TEMP:  25;

HURON          CLOUDY    14   5  67 SE21G29   30.11F WCI  -4
6HR MIN TEMP:  10; 6HR MAX TEMP:  14;

MADISON        CLOUDY     9   5  85 SE20G29   30.14F WCI -11
MITCHELL       CLOUDY    14   8  77 S26G33    30.15F WCI  -6
6HR MIN TEMP:  11; 6HR MAX TEMP:  15;

SIOUX FALLS    CLOUDY    11   3  70 SE14      30.21F WCI  -5
6HR MIN TEMP:   6; 6HR MAX TEMP:  11; 6HR PCP: TRACE;

WINNER         CLOUDY    29  19  66 S21       29.92F WCI  16
YANKTON        CLOUDY    12   7  79 SE20      30.19F WCI  -6
$$

MNZ071-072-080-081-089-090-097-098-140100-
SOUTHWEST MINNESOTA

CITY           SKY/WX    TMP DP  RH WIND       PRES   REMARKS
FAIRMONT       CLOUDY    10   0  61 SE15      30.33F WCI  -6
JACKSON        CLOUDY    10   0  61 SE14      30.30F WCI  -5
LUVERNE        CLOUDY    12   3  67 SE14G20   30.26F WCI  -3
MARSHALL       CLOUDY    10   0  63 S18       30.27F WCI  -8
6HR MIN TEMP:   6; 6HR MAX TEMP:  10;

MONTEVIDEO     CLOUDY     9   1  72 S16       30.30F WCI  -9
PIPESTONE      CLOUDY    10  -4  52 S16       30.19F WCI  -7
REDWOOD FALLS  CLOUDY    10   2  69 SE15      30.34F WCI  -7
TRACY          CLOUDY    10   2  69 S13G21    30.27F WCI  -5
WINDOM         CLOUDY     9   0  66 SE13G18   30.29F WCI  -7
WORTHINGTON    CLOUDY     7  -2  66 SE16      30.27F WCI -11
$$

IAZ001>003-012>014-020>022-031-032-NEZ013-014-SDZ071-140100-
NORTHWEST IOWA

CITY           SKY/WX    TMP DP  RH WIND       PRES   REMARKS
CHEROKEE       LGT SNOW  10   6  82 SE10      30.31F WCI  -4
DENISON        LGT SNOW  12   9  85 SE10      30.30F WCI  -1
ESTHERVILLE    CLOUDY     8  -1  66 SE16      30.32F WCI -10
LE MARS        LGT SNOW  12  10  92 SE16G24   30.27F VSB 3/4 WCI  -4
ORANGE CITY    LGT SNOW  10   7  85 SE9       30.25F WCI  -2
SHELDON        CLOUDY    10   3  72 SE13      30.27F WCI  -5
SIOUX CITY     CLOUDY    16   4  59 SE20      30.26F WCI  -1
6HR MIN TEMP:  10; 6HR MAX TEMP:  16; 6HR PCP: TRACE;

SPENCER        CLOUDY     9   0  67 SE15      30.32F WCI  -8
6HR MIN TEMP:   4; 6HR MAX TEMP:   9;

STORM LAKE     CLOUDY     9   3  78 SE18      30.29F HAZE    WCI -10
$$

ABBREVIATIONS USED IN REMARKS
   TC - TEMPERATURE IN CELSIUS
  WCI - WIND CHILL INDEX
   HX - HEAT INDEX
  VSB - VISIBILITY





USA.gov is the U.S. government's official web portal to all federal, state and local government web resources and services.